Canadian, TX

7:14 PM CST on December 05, 2019 (GMT -0600)
Hemphill County

Weather History for KHHF - November, 2019

Change the Weather History Date:

Saturday, November 16, 2019

  Actual Average (KPPA) Record (KPPA)
Temperature  
Mean Temperature 56 °F -  
Max Temperature 69 °F 56 °F 85 °F (2016)
Min Temperature 42 °F 31 °F 11 °F (2014)
Degree Days  
Heating Degree Days 10    
Growing Degree Days 6 (Base 50)    
Moisture  
Dew Point 35 °F    
Average Humidity 50    
Maximum Humidity 71    
Minimum Humidity 27    
Precipitation  
Precipitation 0.00 in - - ()
Sea Level Pressure  
Sea Level Pressure 30.01 in    
Wind  
Wind Speed 11 mph ()    
Max Wind Speed 23 mph    
Max Gust Speed 28 mph    
Visibility 10.0 miles    
Events      
Averages and records for this station are not official NWS values.
T = Trace of Precipitation, MM = Missing Value Source: Averaged Metar Reports

Daily Weather History Graph

Daily Weather History Graph

Search for Another Location

Airport or City:

Astronomy

Nov. 16, 2019 Rise Set
Actual Time 7:18 AM CST 5:33 PM CST
Civil Twilight 6:51 AM CST 6:00 PM CST
Nautical Twilight 6:20 AM CST 6:31 PM CST
Astronomical Twilight 5:50 AM CST 7:02 PM CST
Moon 9:11 PM CST (11/16) 11:10 AM CST (11/16)
Length of Visible Light 11h 09m
Length of Day
10h 14m
Waning Gibbous, 82% of the Moon is Illuminated
Nov 16
Waning Gibbous
Nov 19
Last Quarter
Nov 26
New
Dec 4
First Quarter
Dec 11
Full

Hourly Weather History & Observations

Time (CST) Temp. Windchill Dew Point Humidity Pressure Visibility Wind Dir Wind Speed Gust Speed Precip Events Conditions
12:15 AM 45.1 °F 38.8 °F 31.6 °F 59% 30.13 in 10.0 mi SW 13.8 mph - N/A   Clear
12:35 AM 45.1 °F 39.5 °F 31.6 °F 59% 30.12 in 10.0 mi SW 11.5 mph - N/A   Clear
12:55 AM 45.5 °F 40.3 °F 31.6 °F 58% 30.12 in 10.0 mi SW 10.4 mph - N/A   Clear
1:15 AM 45.0 °F 39.7 °F 31.5 °F 59% 30.12 in 10.0 mi SW 10.4 mph - N/A   Clear
1:35 AM 44.6 °F 38.4 °F 31.6 °F 60% 30.11 in 10.0 mi SW 12.7 mph - N/A   Clear
1:55 AM 44.6 °F 38.4 °F 31.6 °F 60% 30.11 in 10.0 mi SW 12.7 mph 17.3 mph N/A   Clear
2:15 AM 44.6 °F 38.4 °F 31.6 °F 60% 30.10 in 10.0 mi SW 12.7 mph - N/A   Clear
2:35 AM 44.2 °F 38.4 °F 31.8 °F 62% 30.10 in 10.0 mi SW 11.5 mph 19.6 mph N/A   Clear
2:55 AM 44.1 °F 37.7 °F 32.0 °F 63% 30.10 in 10.0 mi SW 12.7 mph - N/A   Clear
3:15 AM 43.3 °F 37.2 °F 31.8 °F 64% 30.09 in 10.0 mi SW 11.5 mph - N/A   Clear
3:35 AM 44.2 °F 38.8 °F 32.0 °F 62% 30.09 in 10.0 mi SW 10.4 mph - N/A   Clear
3:55 AM 43.9 °F 38.3 °F 31.8 °F 63% 30.09 in 10.0 mi SW 10.4 mph - N/A   Clear
4:15 AM 43.2 °F 37.4 °F 31.8 °F 64% 30.09 in 10.0 mi SSW 10.4 mph - N/A   Clear
4:35 AM 43.3 °F 37.7 °F 31.6 °F 63% 30.08 in 10.0 mi SSW 10.4 mph - N/A   Clear
4:55 AM 44.1 °F 38.1 °F 31.8 °F 62% 30.07 in 10.0 mi SSW 11.5 mph - N/A   Clear
5:15 AM 43.9 °F 37.9 °F 31.6 °F 62% 30.07 in 10.0 mi SSW 11.5 mph - N/A   Clear
5:35 AM 44.6 °F 38.8 °F 31.5 °F 60% 30.07 in 10.0 mi SW 11.5 mph - N/A   Clear
5:55 AM 44.1 °F 37.7 °F 31.5 °F 61% 30.06 in 10.0 mi SSW 12.7 mph - N/A   Clear
6:15 AM 43.0 °F 36.4 °F 31.3 °F 63% 30.06 in 10.0 mi SSW 12.7 mph - N/A   Clear
6:35 AM 42.3 °F 35.9 °F 31.5 °F 66% 30.06 in 10.0 mi SSW 11.5 mph - N/A   Clear
6:55 AM 43.7 °F 38.6 °F 31.6 °F 63% 30.06 in 10.0 mi SSW 9.2 mph - N/A   Clear
7:15 AM 44.1 °F 37.7 °F 31.8 °F 62% 30.05 in 10.0 mi SSW 12.7 mph - N/A   Clear
7:35 AM 44.6 °F 38.4 °F 32.0 °F 61% 30.05 in 10.0 mi SSW 12.7 mph 18.4 mph N/A   Clear
7:55 AM 44.8 °F 39.4 °F 32.0 °F 61% 30.05 in 10.0 mi SSW 10.4 mph - N/A   Clear
8:15 AM 46.6 °F - 32.2 °F 57% 30.05 in 10.0 mi SSW 12.7 mph - N/A   Clear
8:35 AM 48.0 °F - 32.9 °F 56% 30.05 in 10.0 mi SSW 9.2 mph - N/A   Clear
8:55 AM 50.2 °F - 33.3 °F 52% 30.05 in 10.0 mi SSW 13.8 mph 17.3 mph N/A   Clear
9:15 AM 52.5 °F - 33.4 °F 48% 30.06 in 10.0 mi SSW 12.7 mph - N/A   Clear
9:35 AM 54.9 °F - 34.0 °F 45% 30.05 in 10.0 mi South 13.8 mph - N/A   Clear
9:55 AM 55.8 °F - 33.8 °F 44% 30.05 in 10.0 mi SSW 12.7 mph - N/A   Clear
10:15 AM 58.3 °F - 34.2 °F 40% 30.05 in 10.0 mi SW 16.1 mph 19.6 mph N/A   Clear
10:35 AM 61.0 °F - 34.2 °F 37% 30.04 in 10.0 mi SSW 15.0 mph 19.6 mph N/A   Clear
10:55 AM 62.4 °F - 34.3 °F 35% 30.03 in 10.0 mi SSW 12.7 mph - N/A   Clear
11:15 AM 64.6 °F - 34.7 °F 33% 30.02 in 10.0 mi SSW 13.8 mph - N/A   Clear
11:35 AM 66.0 °F - 34.7 °F 31% 30.01 in 10.0 mi SSW 15.0 mph 20.7 mph N/A   Clear
11:55 AM 67.3 °F - 34.7 °F 30% 29.99 in 10.0 mi SSW 16.1 mph 23.0 mph N/A   Clear
12:15 PM 68.5 °F - 34.9 °F 29% 29.98 in 10.0 mi South 15.0 mph 23.0 mph N/A   Clear
12:35 PM 68.5 °F - 34.2 °F 28% 29.97 in 10.0 mi South 18.4 mph 21.9 mph N/A   Clear
12:55 PM 68.7 °F - 34.0 °F 28% 29.96 in 10.0 mi SSW 15.0 mph 24.2 mph N/A   Clear
1:15 PM 69.6 °F - 34.5 °F 27% 29.94 in 10.0 mi SSW 17.3 mph 21.9 mph N/A   Clear
1:35 PM 69.6 °F - 34.7 °F 28% 29.92 in 10.0 mi South 17.3 mph 23.0 mph N/A   Clear
1:55 PM 68.4 °F - 34.9 °F 29% 29.91 in 10.0 mi South 23.0 mph - N/A   Clear
2:15 PM 69.1 °F - 34.3 °F 28% 29.91 in 10.0 mi South 20.7 mph 27.6 mph N/A   Clear
2:35 PM 68.0 °F - 34.7 °F 29% 29.90 in 10.0 mi South 18.4 mph 25.3 mph N/A   Clear
2:55 PM 67.3 °F - 35.1 °F 30% 29.91 in 10.0 mi South 17.3 mph 26.5 mph N/A   Clear
3:15 PM 65.3 °F - 34.7 °F 32% 29.91 in 10.0 mi South 17.3 mph 20.7 mph N/A   Clear
3:35 PM 65.7 °F - 34.7 °F 32% 29.90 in 10.0 mi South 15.0 mph 21.9 mph N/A   Clear
3:50 PM 66.2 °F - 35.1 °F 32% 29.90 in 10.0 mi SSW 10.4 mph 16.1 mph N/A   Clear
4:15 PM 65.3 °F - 35.6 °F 33% 29.91 in 10.0 mi South 11.5 mph 17.3 mph N/A   Clear
4:35 PM 63.9 °F - 35.6 °F 35% 29.91 in 10.0 mi South 13.8 mph 19.6 mph N/A   Clear
4:55 PM 62.6 °F - 35.6 °F 37% 29.91 in 10.0 mi South 12.7 mph 18.4 mph N/A   Clear
5:15 PM 61.9 °F - 36.0 °F 38% 29.91 in 10.0 mi South 15.0 mph - N/A   Clear
5:50 PM 60.4 °F - 36.5 °F 41% 29.92 in 10.0 mi South 15.0 mph 21.9 mph N/A   Clear
6:10 PM 59.0 °F - 36.9 °F 44% 29.92 in 10.0 mi South 16.1 mph 20.7 mph N/A   Clear
6:35 PM 58.1 °F - 37.4 °F 46% 29.93 in 10.0 mi South 12.7 mph 19.6 mph N/A   Clear
6:55 PM 57.2 °F - 37.8 °F 48% 29.94 in 10.0 mi South 11.5 mph 19.6 mph N/A   Clear
7:15 PM 56.8 °F - 38.3 °F 50% 29.94 in 10.0 mi South 10.4 mph 20.7 mph N/A   Clear
7:35 PM 55.6 °F - 38.3 °F 52% 29.94 in 10.0 mi SW 5.8 mph - N/A   Clear
8:15 PM 55.6 °F - 38.7 °F 53% 29.96 in 10.0 mi SSW 9.2 mph - N/A   Clear
8:35 PM 54.9 °F - 38.7 °F 54% 29.96 in 10.0 mi SSW 6.9 mph - N/A   Clear
8:55 PM 55.2 °F - 39.0 °F 54% 29.97 in 10.0 mi Calm Calm - N/A   Clear
9:15 PM 54.0 °F - 38.8 °F 57% 29.96 in 10.0 mi SSW 3.5 mph - N/A   Clear
9:35 PM 54.7 °F - 39.2 °F 56% 29.97 in 10.0 mi SSW 4.6 mph - N/A   Clear
9:55 PM 54.9 °F - 39.4 °F 56% 29.98 in 10.0 mi Calm Calm - N/A   Clear
10:15 PM 53.2 °F - 38.8 °F 58% 29.97 in 10.0 mi South 3.5 mph - N/A   Clear
10:35 PM 52.5 °F - 39.2 °F 61% 29.98 in 10.0 mi Calm Calm - N/A   Clear
10:55 PM 51.4 °F - 39.2 °F 63% 29.98 in 10.0 mi Calm Calm - N/A   Clear
11:15 PM 50.0 °F - 39.0 °F 66% 29.99 in 10.0 mi Calm Calm - N/A   Clear
11:35 PM 49.6 °F - 39.0 °F 67% 30.00 in 10.0 mi Calm Calm - N/A   Clear
11:55 PM 47.8 °F - 38.8 °F 71% 30.00 in 10.0 mi South 4.6 mph - N/A   Clear